TimeCST,TemperatureF,Dew PointF,Humidity,Sea Level PressureIn,VisibilityMPH,Wind Direction,Wind SpeedMPH,Gust SpeedMPH,PrecipitationIn,Events,Conditions,WindDirDegrees,DateUTC
12:15 AM,17.6,6.8,63,30.19,10.0,South,8.1,-,N/A,,Overcast,190,2013-01-23 06:15:00
12:35 AM,17.6,6.8,63,30.18,10.0,South,6.9,-,N/A,,Overcast,190,2013-01-23 06:35:00
12:55 AM,17.6,6.8,63,30.17,10.0,South,8.1,-,N/A,,Overcast,180,2013-01-23 06:55:00
1:15 AM,17.6,6.8,63,30.17,10.0,South,6.9,-,N/A,,Overcast,190,2013-01-23 07:15:00
1:35 AM,17.6,6.8,63,30.16,10.0,South,8.1,-,N/A,,Overcast,190,2013-01-23 07:35:00
1:55 AM,17.6,6.8,63,30.16,10.0,South,6.9,-,N/A,,Overcast,190,2013-01-23 07:55:00
2:15 AM,17.6,8.6,68,30.15,10.0,South,8.1,-,N/A,,Overcast,190,2013-01-23 08:15:00
2:35 AM,17.6,8.6,68,30.15,10.0,South,8.1,-,N/A,,Overcast,190,2013-01-23 08:35:00
2:55 AM,19.4,8.6,63,30.15,10.0,South,6.9,-,N/A,,Overcast,190,2013-01-23 08:55:00
3:15 AM,19.4,8.6,63,30.14,10.0,South,8.1,-,N/A,,Overcast,190,2013-01-23 09:15:00
3:35 AM,19.4,8.6,63,30.13,10.0,South,9.2,-,N/A,,Overcast,190,2013-01-23 09:35:00
3:55 AM,19.4,8.6,63,30.12,10.0,South,8.1,-,N/A,,Overcast,190,2013-01-23 09:55:00
4:15 AM,19.4,8.6,63,30.13,10.0,SSW,6.9,-,N/A,,Overcast,210,2013-01-23 10:15:00
4:35 AM,19.4,8.6,63,30.12,10.0,SSW,5.8,-,N/A,,Overcast,210,2013-01-23 10:35:00
4:55 AM,19.4,8.6,63,30.11,10.0,SSW,5.8,-,N/A,,Overcast,200,2013-01-23 10:55:00
5:15 AM,19.4,10.4,68,30.12,10.0,SW,4.6,-,N/A,,Overcast,220,2013-01-23 11:15:00
5:35 AM,19.4,10.4,68,30.13,10.0,WSW,6.9,-,N/A,,Overcast,240,2013-01-23 11:35:00
5:55 AM,19.4,10.4,68,30.12,10.0,WSW,4.6,-,N/A,,Overcast,240,2013-01-23 11:55:00
6:15 AM,21.2,10.4,63,30.11,10.0,West,5.8,-,N/A,,Overcast,260,2013-01-23 12:15:00
6:35 AM,19.4,10.4,68,30.11,10.0,West,6.9,-,N/A,,Overcast,260,2013-01-23 12:35:00
6:55 AM,19.4,10.4,68,30.12,10.0,West,5.8,-,N/A,,Overcast,280,2013-01-23 12:55:00
7:15 AM,19.4,10.4,68,30.12,10.0,West,5.8,-,N/A,,Overcast,270,2013-01-23 13:15:00
7:35 AM,19.4,10.4,68,30.12,10.0,WNW,5.8,-,N/A,,Overcast,290,2013-01-23 13:35:00
7:55 AM,19.4,10.4,68,30.13,10.0,WNW,9.2,-,N/A,,Overcast,290,2013-01-23 13:55:00
8:15 AM,19.4,10.4,68,30.14,10.0,NW,9.2,-,N/A,,Overcast,310,2013-01-23 14:15:00
8:35 AM,19.4,10.4,68,30.15,10.0,NW,11.5,-,N/A,,Overcast,310,2013-01-23 14:35:00
8:55 AM,19.4,10.4,68,30.15,10.0,NNW,16.1,-,N/A,,Overcast,330,2013-01-23 14:55:00
9:15 AM,19.4,10.4,68,30.16,10.0,NW,16.1,-,N/A,,Overcast,320,2013-01-23 15:15:00
9:35 AM,19.4,10.4,68,30.17,10.0,NW,17.3,-,N/A,,Overcast,320,2013-01-23 15:35:00
9:55 AM,21.2,10.4,63,30.18,10.0,NNW,15.0,-,N/A,,Mostly Cloudy,340,2013-01-23 15:55:00
10:15 AM,21.2,8.6,58,30.19,10.0,NNW,16.1,-,N/A,,Overcast,330,2013-01-23 16:15:00
10:35 AM,21.2,8.6,58,30.19,10.0,NNW,16.1,-,N/A,,Overcast,330,2013-01-23 16:35:00
10:55 AM,21.2,10.4,63,30.21,9.0,NW,15.0,20.7,N/A,,Overcast,310,2013-01-23 16:55:00
11:15 AM,21.2,10.4,63,30.21,7.0,NW,18.4,-,N/A,,Overcast,320,2013-01-23 17:15:00
11:35 AM,21.2,10.4,63,30.22,4.0,NW,18.4,24.2,N/A,,Overcast,320,2013-01-23 17:35:00
11:55 AM,21.2,8.6,58,30.21,9.0,NW,19.6,-,N/A,,Overcast,320,2013-01-23 17:55:00
12:15 PM,21.2,8.6,58,30.22,8.0,NW,20.7,27.6,N/A,,Overcast,310,2013-01-23 18:15:00
12:35 PM,21.2,6.8,54,30.21,10.0,NW,21.9,27.6,N/A,,Mostly Cloudy,320,2013-01-23 18:35:00
12:55 PM,21.2,6.8,54,30.21,10.0,NW,25.3,28.8,N/A,,Scattered Clouds,320,2013-01-23 18:55:00
1:15 PM,21.2,5.0,50,30.21,10.0,NW,25.3,31.1,N/A,,Clear,310,2013-01-23 19:15:00
1:35 PM,19.4,5.0,54,30.22,10.0,NW,20.7,31.1,N/A,,Clear,320,2013-01-23 19:35:00
1:55 PM,19.4,3.2,49,30.23,10.0,NW,28.8,32.2,N/A,,Partly Cloudy,320,2013-01-23 19:55:00
2:15 PM,17.6,1.4,49,30.24,10.0,NW,25.3,33.4,N/A,,Partly Cloudy,320,2013-01-23 20:15:00
2:35 PM,17.6,1.4,49,30.26,10.0,NW,27.6,32.2,N/A,,Partly Cloudy,310,2013-01-23 20:35:00
2:55 PM,15.8,-0.4,49,30.28,10.0,NW,25.3,32.2,N/A,,Partly Cloudy,310,2013-01-23 20:55:00
3:15 PM,15.8,-0.4,49,30.28,10.0,NW,28.8,33.4,N/A,,Scattered Clouds,310,2013-01-23 21:15:00
3:35 PM,14.0,-2.2,49,30.29,10.0,NW,27.6,36.8,N/A,,Scattered Clouds,320,2013-01-23 21:35:00
3:55 PM,12.2,-2.2,53,30.31,10.0,NW,27.6,34.5,N/A,,Scattered Clouds,320,2013-01-23 21:55:00
4:15 PM,10.4,-4.0,52,30.32,10.0,NW,28.8,32.2,N/A,,Mostly Cloudy,310,2013-01-23 22:15:00
4:35 PM,10.4,-4.0,52,30.33,10.0,NW,23.0,28.8,N/A,,Mostly Cloudy,320,2013-01-23 22:35:00
4:55 PM,8.6,-5.8,52,30.35,10.0,NW,26.5,33.4,N/A,,Scattered Clouds,310,2013-01-23 22:55:00
5:15 PM,6.8,-5.8,56,30.35,10.0,NW,23.0,34.5,N/A,,Clear,310,2013-01-23 23:15:00
5:35 PM,6.8,-5.8,56,30.37,10.0,NW,25.3,33.4,N/A,,Clear,310,2013-01-23 23:35:00
5:55 PM,6.8,-7.6,52,30.38,10.0,NW,26.5,36.8,N/A,,Clear,320,2013-01-23 23:55:00
6:15 PM,5.0,-9.4,52,30.40,10.0,NW,23.0,28.8,N/A,,Clear,320,2013-01-24 00:15:00
6:35 PM,3.2,-9.4,56,30.41,10.0,NNW,23.0,28.8,N/A,,Clear,340,2013-01-24 00:35:00
6:55 PM,3.2,-9.4,56,30.41,10.0,NNW,23.0,-,N/A,,Clear,340,2013-01-24 00:55:00
7:15 PM,3.2,-9.4,56,30.42,10.0,NNW,25.3,29.9,N/A,,Clear,330,2013-01-24 01:15:00
7:35 PM,1.4,-9.4,61,30.43,10.0,NNW,19.6,26.5,N/A,,Clear,340,2013-01-24 01:35:00
7:55 PM,1.4,-9.4,61,30.44,10.0,NNW,19.6,25.3,N/A,,Clear,340,2013-01-24 01:55:00
8:15 PM,1.4,-11.2,56,30.44,10.0,NNW,18.4,-,N/A,,Clear,330,2013-01-24 02:15:00
8:35 PM,1.4,-9.4,61,30.46,10.0,NNW,18.4,-,N/A,,Clear,330,2013-01-24 02:35:00
8:55 PM,1.4,-9.4,61,30.47,10.0,NNW,17.3,21.9,N/A,,Clear,330,2013-01-24 02:55:00
9:15 PM,-0.4,-11.2,60,30.48,10.0,NNW,17.3,-,N/A,,Clear,340,2013-01-24 03:15:00
9:35 PM,-0.4,-9.4,66,30.48,10.0,NNW,13.8,-,N/A,,Clear,340,2013-01-24 03:35:00
9:55 PM,-0.4,-11.2,60,30.49,10.0,NNW,16.1,19.6,N/A,,Clear,340,2013-01-24 03:55:00
10:15 PM,-0.4,-11.2,60,30.49,10.0,NNW,15.0,-,N/A,,Clear,340,2013-01-24 04:15:00
10:35 PM,-0.4,-11.2,60,30.50,10.0,NNW,13.8,20.7,N/A,,Clear,340,2013-01-24 04:35:00
10:55 PM,-0.4,-11.2,60,30.51,10.0,North,15.0,-,N/A,,Clear,350,2013-01-24 04:55:00
11:15 PM,-0.4,-11.2,60,30.53,10.0,NNW,16.1,-,N/A,,Clear,340,2013-01-24 05:15:00
11:35 PM,-0.4,-11.2,60,30.53,10.0,NNW,13.8,-,N/A,,Clear,340,2013-01-24 05:35:00
11:55 PM,-0.4,-11.2,60,30.54,10.0,NNW,12.7,18.4,N/A,,Clear,340,2013-01-24 05:55:00